Location: Andrest
(43.3200°N, 0.0641°E)
Time: 15:03:51
(UTC+00:00)

H-2A R/B - Visible Passes

Search period start: 20 April 2021 00:00
Search period end: 30 April 2021 00:00
Orbit: 578 x 654 km, 98.5° (Epoch: 20 April)

Date Brightness Start Highest point End Pass type
(mag) Time Alt. Az. Time Alt. Az. Time Alt. Az.
20 Apr 5.4 03:40:29 10° E 03:42:52 15° ENE 03:45:17 10° NNE visible
21 Apr 5.0 03:55:32 10° ESE 03:58:43 21° ENE 04:01:55 10° NNE visible
22 Apr 4.4 04:10:55 10° SE 04:14:35 29° ENE 04:18:20 10° N visible
23 Apr 3.6 04:26:29 10° SE 04:30:29 42° ENE 04:34:36 10° N visible
23 Apr 5.6 19:24:48 10° NNW 19:27:20 15° WNW 19:29:51 10° W visible
24 Apr 6.1 19:42:11 10° NW 19:43:08 11° WNW 19:44:05 10° WNW visible
25 Apr 5.9 03:26:35 10° ENE 03:27:13 10° ENE 03:27:52 10° NE visible
26 Apr 5.4 03:40:38 10° E 03:43:01 15° ENE 03:45:26 10° NNE visible
27 Apr 5.1 03:55:40 10° ESE 03:58:51 20° ENE 04:02:05 10° NNE visible
28 Apr 4.5 04:11:01 10° SE 04:14:43 28° ENE 04:18:30 10° N visible
